Location: Breux
(46.3269°N, 3.2993°E)
Time: 15:15:36
(UTC+00:00)

ATLAS 5 CENTAUR R/B - Pass Details

Date: 09 April 2020
Orbit: 543 x 1116 km, 63.4° (Epoch: 01 May)

Event Time Altitude Azimuth Distance (km) Brightness Sun altitude
Rises 19:58:07 0° 230° (SW) 2,729 5.1 -15.5°
Reaches altitude 10° 20:00:15 10° 234° (SW) 1,872 4.3 -15.8°
Maximum altitude 20:04:22 57° 314° (NW) 725 2.2 -16.4°
Drops below altitude 10° 20:09:02 10° 34° (NNE) 2,122 4.3 -17.1°
Sets 20:11:36 0° 38° (NE) 3,134 5.1 -17.5°
